CW4320 Weather Reports


time (UTC)temp
F
wind
direction
speed
knots
gust
knots
rain 1hr
in
rain 24hr
in
rain mn
in
humidity
%
barometer
mb
20260510214032 54 210 0.0 0.0 0.00 0.00 0.13 80 1011.1
20260510213027 54 210 0.0 0.0 0.00 0.00 0.13 80 1011.1
20260510212535 55 210 0.0 0.0 0.00 0.00 0.13 80 1011.1
20260510212022 55 210 0.0 0.0 0.00 0.00 0.13 80 1011.1
20260510211531 55 210 0.0 0.0 0.00 0.00 0.13 80 1011.1
20260510211035 55 210 0.0 0.0 0.00 0.00 0.13 80 1011.0
20260510210557 55 210 0.0 0.0 0.00 0.00 0.13 80 1011.0
20260510210037 55 210 0.0 0.0 0.00 0.00 0.13 80 1011.0
20260510205523 55 210 0.0 0.0 0.00 0.00 0.13 80 1010.8
20260510204524 56 210 0.0 0.9 0.00 0.00 0.13 80 1010.8
20260510204029 56 210 0.0 0.9 0.00 0.00 0.13 80 1010.6
20260510203537 56 210 0.0 1.7 0.00 0.00 0.13 80 1010.6
20260510202531 56 210 0.9 2.6 0.00 0.00 0.13 80 1010.4
20260510201525 57 210 0.9 1.7 0.00 0.00 0.13 80 1010.4
20260510201030 57 210 0.0 2.6 0.00 0.00 0.13 80 1010.3
20260510200035 57 210 0.9 1.7 0.00 0.00 0.13 80 1010.3
20260510195525 58 210 0.0 0.9 0.00 0.00 0.13 80 1010.2
20260510195032 58 210 0.0 1.7 0.00 0.00 0.13 80 1010.2
20260510194526 58 210 0.0 2.6 0.00 0.00 0.13 80 1010.2
20260510194031 58 210 0.9 2.6 0.00 0.00 0.13 80 1010.0
20260510193538 58 210 1.7 2.6 0.00 0.00 0.13 80 1010.0
20260510193022 58 210 1.7 2.6 0.00 0.00 0.13 80 1010.0
20260510192533 59 210 0.9 3.5 0.00 0.00 0.13 80 1010.0
20260510191526 59 217 0.9 5.2 0.00 0.00 0.13 80 1010.0
20260510191032 59 212 1.7 6.1 0.00 0.00 0.13 80 1010.0
20260510190021 59 212 1.7 4.3 0.00 0.00 0.13 80 1010.0
20260510185530 59 210 1.7 4.3 0.01 0.00 0.13 80 1009.8
20260510184528 59 223 3.5 6.1 0.01 0.00 0.13 80 1009.8
20260510183525 60 215 3.5 6.1 0.02 0.00 0.13 80 1009.5
20260510183031 60 183 3.5 6.1 0.03 0.00 0.13 80 1009.5
20260510182540 60 255 3.5 5.2 0.05 0.00 0.13 80 1009.5
20260510182025 60 225 0.0 7.8 0.06 0.00 0.13 80 1009.5
20260510181536 60 251 3.5 7.8 0.07 0.00 0.13 80 1009.5
20260510181023 60 288 0.9 7.8 0.07 0.00 0.13 80 1009.6
20260510180543 60 271 2.6 7.8 0.07 0.00 0.13 80 1009.6
20260510180026 59 251 3.5 6.1 0.07 0.00 0.13 80 1009.6
20260510175538 59 273 4.3 7.8 0.06 0.00 0.12 80 1009.5
20260510175021 59 286 3.5 9.6 0.06 0.00 0.12 80 1009.5
20260510174529 59 284 4.3 10.4 0.06 0.00 0.12 80 1009.5
20260510174035 59 295 5.2 13.0 0.06 0.00 0.11 80 1009.1
20260510173523 59 281 6.1 13.0 0.06 0.00 0.11 80 1009.1
20260510173029 60 302 7.0 10.4 0.04 0.00 0.09 80 1009.1
20260510172027 61 280 7.8 13.0 0.02 0.00 0.07 80 1009.0
20260510171027 61 291 6.1 10.4 0.00 0.00 0.06 80 1008.9
20260510170550 62 276 6.1 9.6 0.00 0.00 0.06 80 1008.9
20260510170037 62 290 4.3 7.8 0.00 0.00 0.06 72 1008.9
20260510165031 63 323 5.2 9.6 0.00 0.00 0.06 60 1008.7
20260510164030 65 316 6.1 9.6 0.00 0.00 0.06 52 1008.4
20260510163538 66 294 5.2 9.6 0.00 0.00 0.06 48 1008.4
20260510163025 67 238 3.5 9.6 0.00 0.00 0.06 41 1008.4
20260510162533 67 253 3.5 12.2 0.00 0.00 0.06 39 1007.9
20260510161039 67 200 6.1 9.6 0.00 0.00 0.06 43 1007.7
20260510160601 67 293 4.3 11.3 0.00 0.00 0.06 48 1007.7
20260510160029 67 227 6.1 11.3 0.00 0.00 0.06 46 1007.7
20260510155537 67 236 4.3 10.4 0.00 0.00 0.06 49 1007.5
20260510155020 67 288 2.6 8.7 0.00 0.00 0.06 52 1007.5
20260510154527 66 262 5.2 9.6 0.00 0.00 0.06 52 1007.5
20260510154032 66 208 5.2 9.6 0.02 0.00 0.06 51 1007.5
20260510153522 66 241 3.5 8.7 0.06 0.00 0.06 49 1007.5
20260510153028 66 214 4.3 8.7 0.06 0.00 0.06 50 1007.5
20260510152537 66 229 5.2 8.7 0.06 0.00 0.06 48 1007.5
20260510152024 66 299 3.5 8.7 0.06 0.00 0.06 47 1007.5
20260510151531 66 258 2.6 9.6 0.06 0.00 0.06 46 1007.5
20260510151039 65 220 3.5 9.6 0.06 0.00 0.06 53 1007.4
20260510150601 65 227 3.5 9.6 0.06 0.00 0.06 57 1007.4
20260510150021 63 240 4.3 9.6 0.06 0.00 0.06 55 1007.4
20260510145037 63 158 1.7 10.4 0.06 0.00 0.06 52 1007.7
20260510144529 63 248 6.1 14.8 0.06 0.00 0.06 48 1007.7
20260510144033 65 149 3.5 14.8 0.05 0.00 0.05 43 1007.3
20260510143540 66 158 6.1 13.0 0.00 0.00 0.00 31 1007.3
20260510143029 67 255 2.6 6.1 0.00 0.00 0.00 29 1007.3
20260510142034 67 195 3.5 11.3 0.00 0.00 0.00 27 1007.4
20260510141526 67 177 7.0 11.3 0.00 0.00 0.00 27 1007.4
20260510141034 67 195 3.5 9.6 0.00 0.00 0.00 27 1007.2
20260510140553 67 169 4.3 11.3 0.00 0.00 0.00 29 1007.2
20260510140037 67 96 4.3 11.3 0.00 0.00 0.00 28 1007.2
20260510135526 67 108 5.2 12.2 0.00 0.00 0.00 28 1007.3
20260510135045 67 91 7.0 12.2 0.00 0.00 0.00 28 1007.3
20260510134539 67 156 4.3 11.3 0.00 0.00 0.00 28 1007.3
20260510134042 67 150 6.1 12.2 0.00 0.00 0.00 25 1007.3
20260510133034 67 131 3.5 11.3 0.00 0.00 0.00 25 1007.3
20260510132530 66 77 4.3 11.3 0.00 0.00 0.00 27 1007.2
20260510132034 66 127 3.5 12.2 0.00 0.00 0.00 26 1007.2
20260510130551 65 141 3.5 10.4 0.00 0.00 0.00 25 1007.1
20260510130034 64 100 6.1 12.2 0.00 0.00 0.00 26 1007.1
20260510125525 64 142 7.0 12.2 0.00 0.00 0.00 28 1007.9
20260510125029 64 95 4.3 7.8 0.00 0.00 0.00 31 1007.9
20260510124536 63 130 5.2 13.9 0.00 0.00 0.00 31 1007.9
20260510124043 64 173 7.0 23.5 0.00 0.00 0.00 31 1008.6
20260510123526 65 186 13.9 23.5 0.00 0.00 0.00 31 1008.6
20260510123036 65 153 8.7 17.4 0.00 0.00 0.00 29 1008.6
20260510122523 66 156 5.2 12.2 0.00 0.00 0.00 30 1008.7
20260510121536 66 154 3.5 9.6 0.00 0.00 0.00 31 1008.7
20260510121021 66 114 4.3 10.4 0.00 0.00 0.00 30 1008.7
20260510120545 66 169 2.6 10.4 0.00 0.00 0.00 31 1008.7
20260510120026 66 143 6.1 13.0 0.00 0.00 0.00 30 1008.7
20260510115537 67 165 7.0 13.0 0.00 0.00 0.00 29 1008.6
20260510115022 66 151 4.3 9.6 0.00 0.00 0.00 33 1008.5
20260510114531 66 113 6.1 9.6 0.00 0.00 0.00 35 1008.5
20260510114035 64 163 5.2 8.7 0.00 0.00 0.00 40 1008.5
20260510113531 63 172 4.3 8.7 0.00 0.00 0.00 51 1008.5
20260510111526 63 30 4.3 10.4 0.00 0.00 0.00 59 1008.6
20260510111033 64 360 6.1 10.4 0.00 0.00 0.00 56 1008.6
20260510110554 64 360 4.3 8.7 0.00 0.00 0.00 50 1008.6
20260510110037 64 332 4.3 11.3 0.00 0.00 0.00 46 1008.6
20260510105526 65 341 8.7 11.3 0.00 0.00 0.00 50 1008.6
20260510105033 66 334 4.3 8.7 0.00 0.00 0.00 47 1008.6
20260510104521 65 360 2.6 8.7 0.00 0.00 0.00 44 1008.6
20260510104032 66 18 2.6 6.1 0.00 0.00 0.00 46 1008.4
20260510103539 67 360 4.3 6.1 0.00 0.00 0.00 42 1008.4
20260510103027 68 360 3.5 9.6 0.00 0.00 0.00 35 1008.4
20260510102538 68 205 2.6 9.6 0.00 0.00 0.00 32 1008.4
20260510102025 68 259 3.5 8.7 0.00 0.00 0.00 37 1008.4
20260510101535 69 292 0.9 3.5 0.00 0.00 0.00 34 1008.4
20260510101039 69 263 1.7 5.2 0.00 0.00 0.00 33 1008.3
20260510100601 70 220 1.7 7.8 0.00 0.00 0.00 24 1008.3
20260510100024 69 193 3.5 7.8 0.00 0.00 0.00 23 1008.3
20260510095531 69 141 2.6 9.6 0.00 0.00 0.00 24 1008.4
20260510095035 70 204 3.5 9.6 0.00 0.00 0.00 25 1008.4
20260510094524 70 96 2.6 10.4 0.00 0.00 0.00 28 1008.4
20260510094032 70 118 7.0 12.2 0.00 0.00 0.00 25 1008.4
20260510093520 70 103 6.1 12.2 0.00 0.00 0.00 24 1008.4
20260510093025 70 133 5.2 8.7 0.00 0.00 0.00 25 1008.4
20260510092533 69 82 4.3 7.8 0.00 0.00 0.00 26 1008.5
20260510091527 68 100 3.5 6.1 0.00 0.00 0.00 28 1008.5
20260510091034 67 131 2.6 6.1 0.00 0.00 0.00 31 1008.4
20260510090557 67 41 4.3 6.1 0.00 0.00 0.00 34 1008.4
20260510090025 68 48 3.5 4.3 0.00 0.00 0.00 32 1008.4
20260510084536 69 87 3.5 6.1 0.00 0.00 0.00 26 1008.4
20260510084022 68 93 2.6 8.7 0.00 0.00 0.00 28 1008.5
20260510083530 68 60 2.6 8.7 0.00 0.00 0.00 29 1008.5
20260510083035 68 88 3.5 11.3 0.00 0.00 0.00 29 1008.5
20260510081522 68 109 1.7 4.3 0.00 0.00 0.00 29 1008.6
20260510080550 66 154 0.9 3.5 0.00 0.00 0.00 34 1008.7
20260510080033 66 103 0.9 3.5 0.00 0.00 0.00 34 1008.7
20260510075525 66 55 2.6 3.5 0.00 0.00 0.00 37 1008.7
20260510075033 66 77 0.0 2.6 0.00 0.00 0.00 35 1008.7
20260510074523 66 77 1.7 3.5 0.00 0.00 0.00 37 1008.7
20260510074027 67 108 2.6 3.5 0.00 0.00 0.00 37 1008.5
20260510073026 66 96 1.7 3.5 0.00 0.00 0.00 43 1008.5
20260510072533 66 141 0.9 2.6 0.00 0.00 0.00 44 1008.4
20260510072037 65 141 0.9 3.5 0.00 0.00 0.00 50 1008.4
20260510071527 65 110 2.6 3.5 0.00 0.00 0.00 56 1008.4
20260510071032 65 119 1.7 2.6 0.00 0.00 0.00 59 1008.2
20260510070557 64 184 0.9 2.6 0.00 0.00 0.00 75 1008.2
20260510065023 62 184 0.9 2.6 0.00 0.00 0.00 80 1008.1
20260510064533 62 184 0.9 2.6 0.00 0.00 0.00 80 1008.1
20260510064038 62 184 0.9 2.6 0.00 0.00 0.00 80 1007.9
20260510063035 60 183 1.7 2.6 0.00 0.00 0.00 80 1007.9
20260510062526 60 221 0.9 1.7 0.00 0.00 0.00 80 1007.9
20260510001535 62 183 9.6 15.6 0.00 0.13 0.00 59 1006.8
20260510001039 62 104 7.0 13.0 0.00 0.13 0.00 59 1006.9
20260510000601 62 141 7.8 15.6 0.00 0.13 0.00 60 1006.9
20260510000024 61 137 7.0 15.6 0.00 0.13 0.00 61 1006.9
20260509235039 61 150 7.8 16.5 0.00 0.13 0.13 73 1007.2
20260509234528 61 127 5.2 16.5 0.00 0.13 0.13 76 1007.2
20260509234033 60 112 7.0 12.2 0.00 0.13 0.13 80 1007.3
20260509233522 60 135 5.2 9.6 0.00 0.13 0.13 80 1007.3
20260509233032 60 133 7.0 10.4 0.00 0.13 0.13 80 1007.3
20260509232540 60 143 6.1 10.4 0.00 0.13 0.13 80 1007.3
20260509232024 60 123 5.2 8.7 0.00 0.13 0.13 80 1007.3
20260509231532 60 151 5.2 9.6 0.00 0.13 0.13 80 1007.3
20260509231038 60 127 6.1 10.4 0.00 0.13 0.13 80 1007.2
20260509230601 60 122 4.3 11.3 0.00 0.13 0.13 80 1007.2
20260509230023 60 155 6.1 10.4 0.00 0.13 0.13 80 1007.2
20260509225039 60 134 5.2 9.6 0.00 0.13 0.13 80 1007.1
20260509224527 60 143 3.5 7.0 0.01 0.13 0.13 80 1007.1
20260509223035 60 129 5.2 11.3 0.01 0.13 0.13 80 1006.9
20260509222521 60 148 6.1 11.3 0.01 0.13 0.13 80 1007.3
20260509222026 60 170 6.1 12.2 0.01 0.13 0.13 80 1007.3
20260509221533 60 146 6.1 12.2 0.01 0.13 0.13 80 1007.3
20260509220601 61 151 7.0 12.2 0.01 0.13 0.13 80 1007.2
20260509220022 61 183 5.2 10.4 0.01 0.13 0.13 80 1007.2
20260509215528 62 164 4.3 8.7 0.01 0.13 0.13 80 1007.2
20260509215033 62 120 4.3 9.6 0.01 0.13 0.13 80 1007.2
20260509214521 62 180 4.3 11.3 0.00 0.13 0.13 80 1007.2